Regional Weather Roundup
Issued by NWS

Home | Current Version | Previous Version | Graphics & Text | Print | Product List | Glossary On
Versions: 1 2 3 4 5 6 7 8 9 10 11 12 13 14 15 16 17 18 19 20 21 22 23 24 25 26 27
000
ASUS45 KSLC 182210
RWRUT

UTAH REGIONAL WEATHER ROUNDUP
NATIONAL WEATHER SERVICE SALT LAKE CITY UT
300 PM MST THU JAN 18 2018

UTZ001>011-023>025-182300-

NORTHERN UTAH

CITY           SKY/WX    TMP DP  RH WIND       PRES   REMARKS
BRIGHAM CITY   CLOUDY    46  31  54 CALM      30.05F
DUGWAY         PTSUNNY   55  30  37 S10       30.04F
HILL AFB       CLOUDY    52  27  38 S12       30.05F
LOGAN          CLOUDY    48  29  47 CALM      30.03F
OGDEN          CLOUDY    53  28  38 S6        30.05F
SALT LAKE CITY CLOUDY    51  36  56 NW7       30.05F
TOOELE VALLEY  CLOUDY    41  34  75 NW7       30.07F
WENDOVER       CLOUDY    39  29  67 E3        30.04F
HEBER CITY       N/A     46  23  39 CALM      30.07F
WEST JORDAN    CLOUDY    52  30  43 S14G23    30.05F

$$

UTZ011>015-024>027-182300-

CENTRAL/NORTHEAST UTAH

CITY           SKY/WX    TMP DP  RH WIND       PRES   REMARKS
PROVO AIRPORT  CLOUDY    48  31  51 CALM      30.08F
MOAB/CANYONLAN MOSUNNY   45  20  36 SE3       30.20F
DELTA          CLOUDY    54  28  37 S8        30.07F
PRICE          PTSUNNY   43  21  41 S3        30.19F
RICHFIELD      SUNNY     55  25  30 CALM      30.09F
ROOSEVELT      PTSUNNY   41  12  30 CALM      30.20F
VERNAL         PTSUNNY   43  14  31 CALM      30.18F

$$

UTZ013>016-019>022-027-182300-

SOUTHERN UTAH

CITY           SKY/WX    TMP DP  RH WIND       PRES   REMARKS
BRYCE CANYON   PTSUNNY   44  25  47 SE13      30.22F
CEDAR CITY     PTSUNNY   55  27  34 SW16G25   30.12F
MILFORD        CLOUDY    56  30  37 SW21G31   30.08S
ST GEORGE      MOCLDY    57  33  40 SW5       30.13F
HANKSVILLE     PTSUNNY   48  18  29 CALM      30.23F
KANAB          SUNNY     57  23  26 S5        30.21F
BLANDING         N/A     43  19  37 SW6       30.29S

$$

REGIONAL REPORTS     COLORADO/ARIZONA

CITY           SKY/WX    TMP DP  RH WIND       PRES   REMARKS
CRAIG, CO      MOSUNNY   41  19  41 E8        30.17F
GRAND JUNCTION SUNNY     47  15  27 VRB5      30.20F
RIFLE, CO      MOSUNNY   44  17  33 CALM      30.21F
MONTROSE, CO   SUNNY     47  14  26 CALM      30.21F
CORTEZ, CO     SUNNY     46  20  35 VRB3      30.22F
COLORADO CITY    N/A     59  27  29 SE6       30.19F
PAGE, AZ       MOSUNNY   49  25  39 CALM      30.19F
GRAND CANYON   MOSUNNY   57  17  21 SW7       30.22F
KINGMAN, AZ    MOSUNNY   67  26  21 W13       30.13F
FLAGSTAFF, AZ  SUNNY     56  11  16 S6        30.23F

$$

REGIONAL REPORTS    NEVADA/IDAHO/WYOMING

CITY           SKY/WX    TMP DP  RH WIND       PRES   REMARKS
LAS VEGAS, NV  PTSUNNY   63  37  38 E6        30.09F
ELY, NY        CLOUDY    57  26  30 S9G20     30.08F
ELKO, NV       CLOUDY    49  30  48 SW3       29.95F
POCATELLO, ID  CLOUDY    53  31  42 S14G22    29.94F
BURLEY, ID     CLOUDY    52  32  46 S17G29    29.90F
EVANSTON, WY   CLOUDY    47  27  45 SW16      30.08F
ROCK SPRINGS,  SUNNY     49  20  31 SW3       30.09F

$$




USA.gov is the U.S. government's official web portal to all federal, state and local government web resources and services.